Year,Month,Day,Hour,Minute,Value (Times are PST for windgust in km/hr)
2013,09,30,00,00,22.50
2013,09,30,00,01,27.40
2013,09,30,00,02,27.40
2013,09,30,00,03,24.20
2013,09,30,00,04,30.60
2013,09,30,00,05,25.70
2013,09,30,00,06,27.40
2013,09,30,00,07,32.20
2013,09,30,00,08,29.00
2013,09,30,00,09,29.00
2013,09,30,00,10,25.70
2013,09,30,00,11,33.80
2013,09,30,00,12,30.60
2013,09,30,00,13,24.20
2013,09,30,00,14,19.30
2013,09,30,00,15,24.20
2013,09,30,00,16,37.00
2013,09,30,00,17,29.00
2013,09,30,00,18,24.20
2013,09,30,00,19,30.60
2013,09,30,00,20,27.40
2013,09,30,00,21,27.40
2013,09,30,00,22,33.80
2013,09,30,00,23,40.20
2013,09,30,00,24,25.70
2013,09,30,00,25,22.50
2013,09,30,00,26,25.70
2013,09,30,00,27,25.70
2013,09,30,00,28,30.60
2013,09,30,00,29,24.20
2013,09,30,00,30,30.60
2013,09,30,00,31,38.60
2013,09,30,00,32,38.60
2013,09,30,00,33,30.60
2013,09,30,00,34,32.20
2013,09,30,00,35,25.70
2013,09,30,00,36,40.20
2013,09,30,00,37,33.80
2013,09,30,00,38,20.90
2013,09,30,00,39,37.00
2013,09,30,00,40,38.60
2013,09,30,00,41,29.00
2013,09,30,00,42,35.40
2013,09,30,00,43,37.00
2013,09,30,00,44,29.00
2013,09,30,00,45,37.00
2013,09,30,00,46,32.20
2013,09,30,00,47,27.40
2013,09,30,00,48,38.60
2013,09,30,00,49,24.20
2013,09,30,00,50,27.40
2013,09,30,00,51,25.70
2013,09,30,00,52,29.00
2013,09,30,00,53,32.20
2013,09,30,00,54,27.40
2013,09,30,00,55,30.60
2013,09,30,00,56,29.00
2013,09,30,00,57,17.70
2013,09,30,00,58,19.30
2013,09,30,00,59,30.60
2013,09,30,01,00,35.40
2013,09,30,01,01,29.00
2013,09,30,01,02,32.20
2013,09,30,01,03,32.20
2013,09,30,01,04,33.80
2013,09,30,01,05,27.40
2013,09,30,01,06,25.70
2013,09,30,01,07,25.70
2013,09,30,01,08,22.50
2013,09,30,01,09,37.00
2013,09,30,01,10,32.20
2013,09,30,01,11,35.40
2013,09,30,01,12,27.40
2013,09,30,01,13,43.50
2013,09,30,01,14,37.00
2013,09,30,01,15,27.40
2013,09,30,01,16,41.80
2013,09,30,01,17,35.40
2013,09,30,01,18,29.00
2013,09,30,01,19,27.40
2013,09,30,01,20,27.40
2013,09,30,01,21,30.60
2013,09,30,01,22,33.80
2013,09,30,01,23,29.00
2013,09,30,01,24,38.60
2013,09,30,01,25,30.60
2013,09,30,01,26,25.70
2013,09,30,01,27,30.60
2013,09,30,01,28,37.00
2013,09,30,01,29,33.80
2013,09,30,01,30,33.80
2013,09,30,01,31,33.80
2013,09,30,01,32,25.70
2013,09,30,01,33,32.20
2013,09,30,01,34,29.00
2013,09,30,01,35,40.20
2013,09,30,01,36,30.60
2013,09,30,01,37,24.20
2013,09,30,01,38,29.00
2013,09,30,01,39,38.60
2013,09,30,01,40,38.60
2013,09,30,01,41,27.40
2013,09,30,01,42,20.90
2013,09,30,01,43,29.00
2013,09,30,01,44,37.00
2013,09,30,01,45,22.50
2013,09,30,01,46,41.80
2013,09,30,01,47,38.60
2013,09,30,01,48,19.30
2013,09,30,01,49,25.70
2013,09,30,01,50,24.20
2013,09,30,01,51,22.50
2013,09,30,01,52,16.10
2013,09,30,01,53,16.10
2013,09,30,01,54,27.40
2013,09,30,01,55,14.50
2013,09,30,01,56,14.50
2013,09,30,01,57,19.30
2013,09,30,01,58,30.60
2013,09,30,01,59,17.70
2013,09,30,02,00,24.20
2013,09,30,02,01,27.40
2013,09,30,02,02,20.90
2013,09,30,02,03,14.50
2013,09,30,02,04,17.70
2013,09,30,02,05,11.30
2013,09,30,02,06,19.30
2013,09,30,02,07,22.50
2013,09,30,02,08,11.30
2013,09,30,02,09,11.30
2013,09,30,02,10,9.60
2013,09,30,02,11,14.50
2013,09,30,02,12,20.90
2013,09,30,02,13,14.50
2013,09,30,02,14,14.50
2013,09,30,02,15,14.50
2013,09,30,02,16,16.10
2013,09,30,02,17,20.90
2013,09,30,02,18,29.00
2013,09,30,02,19,19.30
2013,09,30,02,20,19.30
2013,09,30,02,21,11.30
2013,09,30,02,22,11.30
2013,09,30,02,23,19.30
2013,09,30,02,24,19.30
2013,09,30,02,25,24.20
2013,09,30,02,26,22.50
2013,09,30,02,27,20.90
2013,09,30,02,28,16.10
2013,09,30,02,29,22.50
2013,09,30,02,30,24.20
2013,09,30,02,31,27.40
2013,09,30,02,32,24.20
2013,09,30,02,33,24.20
2013,09,30,02,34,30.60
2013,09,30,02,35,25.70
2013,09,30,02,36,25.70
2013,09,30,02,37,24.20
2013,09,30,02,38,24.20
2013,09,30,02,39,22.50
2013,09,30,02,40,14.50
2013,09,30,02,41,14.50
2013,09,30,02,42,8.10
2013,09,30,02,43,25.70
2013,09,30,02,44,29.00
2013,09,30,02,45,14.50
2013,09,30,02,46,19.30
2013,09,30,02,47,24.20
2013,09,30,02,48,30.60
2013,09,30,02,49,12.90
2013,09,30,02,50,12.90
2013,09,30,02,51,11.30
2013,09,30,02,52,20.90
2013,09,30,02,53,19.30
2013,09,30,02,54,14.50
2013,09,30,02,55,9.60
2013,09,30,02,56,12.90
2013,09,30,02,57,20.90
2013,09,30,02,58,20.90
2013,09,30,02,59,16.10
2013,09,30,03,00,8.10
2013,09,30,03,01,16.10
2013,09,30,03,02,17.70
2013,09,30,03,03,16.10
2013,09,30,03,04,16.10
2013,09,30,03,05,17.70
2013,09,30,03,06,9.60
2013,09,30,03,07,8.10
2013,09,30,03,08,8.10
2013,09,30,03,09,9.60
2013,09,30,03,10,9.60
2013,09,30,03,11,11.30
2013,09,30,03,12,12.90
2013,09,30,03,13,12.90
2013,09,30,03,14,9.60
2013,09,30,03,15,12.90
2013,09,30,03,16,12.90
2013,09,30,03,17,4.80
2013,09,30,03,18,4.80
2013,09,30,03,19,1.60
2013,09,30,03,20,3.20
2013,09,30,03,21,4.80
2013,09,30,03,22,8.10
2013,09,30,03,23,6.40
2013,09,30,03,24,11.30
2013,09,30,03,25,1.60
2013,09,30,03,26,9.60
2013,09,30,03,27,8.10
2013,09,30,03,28,3.20
2013,09,30,03,29,4.80
2013,09,30,03,34,3.20
2013,09,30,03,35,11.30
2013,09,30,03,36,14.50
2013,09,30,03,37,14.50
2013,09,30,03,38,11.30
2013,09,30,03,39,9.60
2013,09,30,03,40,6.40
2013,09,30,03,41,9.60
2013,09,30,03,42,9.60
2013,09,30,03,43,14.50
2013,09,30,03,44,11.30
2013,09,30,03,45,8.10
2013,09,30,03,46,9.60
2013,09,30,03,47,8.10
2013,09,30,03,48,8.10
2013,09,30,03,49,11.30
2013,09,30,03,50,17.70
2013,09,30,03,51,11.30
2013,09,30,03,52,12.90
2013,09,30,03,53,9.60
2013,09,30,03,54,11.30
2013,09,30,03,55,9.60
2013,09,30,03,56,9.60
2013,09,30,03,57,9.60
2013,09,30,03,58,11.30
2013,09,30,03,59,11.30
2013,09,30,04,00,17.70
2013,09,30,04,01,9.60
2013,09,30,04,02,8.10
2013,09,30,04,03,8.10
2013,09,30,04,04,9.60
2013,09,30,04,05,11.30
2013,09,30,04,06,12.90
2013,09,30,04,07,14.50
2013,09,30,04,08,11.30
2013,09,30,04,09,9.60
2013,09,30,04,10,9.60
2013,09,30,04,11,11.30
2013,09,30,04,12,11.30
2013,09,30,04,13,6.40
2013,09,30,04,14,4.80
2013,09,30,04,15,6.40
2013,09,30,04,16,9.60
2013,09,30,04,17,17.70
2013,09,30,04,18,8.10
2013,09,30,04,19,8.10
2013,09,30,04,20,9.60
2013,09,30,04,21,6.40
2013,09,30,04,22,4.80
2013,09,30,04,23,3.20
2013,09,30,04,24,3.20
2013,09,30,04,25,1.60
2013,09,30,04,26,1.60
2013,09,30,04,27,1.60
2013,09,30,04,28,1.60
2013,09,30,04,29,3.20
2013,09,30,04,30,9.60
2013,09,30,04,31,8.10
2013,09,30,04,32,3.20
2013,09,30,04,33,4.80
2013,09,30,04,34,6.40
2013,09,30,04,35,4.80
2013,09,30,04,36,8.10
2013,09,30,04,37,6.40
2013,09,30,04,38,3.20
2013,09,30,04,39,9.60
2013,09,30,04,40,8.10
2013,09,30,04,41,9.60
2013,09,30,04,42,8.10
2013,09,30,04,43,11.30
2013,09,30,04,44,4.80
2013,09,30,04,45,11.30
2013,09,30,04,46,9.60
2013,09,30,04,47,6.40
2013,09,30,04,48,4.80
2013,09,30,04,49,9.60
2013,09,30,04,50,4.80
2013,09,30,04,51,12.90
2013,09,30,04,52,6.40
2013,09,30,04,53,6.40
2013,09,30,04,54,3.20
2013,09,30,04,55,1.60
2013,09,30,04,56,1.60
2013,09,30,04,57,4.80
2013,09,30,04,58,3.20
2013,09,30,04,59,3.20
2013,09,30,05,00,3.20
2013,09,30,05,03,1.60
2013,09,30,05,04,1.60
2013,09,30,05,07,1.60
2013,09,30,05,08,1.60
2013,09,30,05,09,1.60
2013,09,30,05,10,1.60
2013,09,30,05,22,1.60
2013,09,30,05,27,1.60
2013,09,30,05,28,3.20
2013,09,30,05,29,1.60
2013,09,30,05,30,1.60
2013,09,30,05,31,4.80
2013,09,30,05,32,1.60
2013,09,30,05,33,1.60
2013,09,30,05,34,6.40
2013,09,30,05,36,3.20
2013,09,30,05,37,3.20
2013,09,30,05,38,1.60
2013,09,30,05,40,1.60
2013,09,30,05,41,1.60
2013,09,30,05,42,1.60
2013,09,30,05,44,1.60
2013,09,30,05,45,1.60
2013,09,30,05,46,6.40
2013,09,30,05,47,6.40
2013,09,30,05,48,1.60
2013,09,30,05,50,3.20
2013,09,30,05,51,6.40
2013,09,30,05,52,3.20
2013,09,30,05,53,3.20
2013,09,30,05,54,3.20
2013,09,30,05,55,3.20
2013,09,30,05,56,1.60
2013,09,30,05,57,3.20
2013,09,30,05,58,3.20
2013,09,30,05,59,3.20
2013,09,30,06,00,3.20
2013,09,30,06,01,3.20
2013,09,30,06,02,6.40
2013,09,30,06,03,3.20
2013,09,30,06,04,3.20
2013,09,30,06,05,3.20
2013,09,30,06,06,3.20
2013,09,30,06,07,3.20
2013,09,30,06,08,6.40
2013,09,30,06,09,8.10
2013,09,30,06,10,8.10
2013,09,30,06,11,8.10
2013,09,30,06,12,8.10
2013,09,30,06,13,9.60
2013,09,30,06,14,11.30
2013,09,30,06,15,11.30
2013,09,30,06,16,12.90
2013,09,30,06,17,9.60
2013,09,30,06,18,11.30
2013,09,30,06,19,6.40
2013,09,30,06,20,9.60
2013,09,30,06,21,11.30
2013,09,30,06,22,11.30
2013,09,30,06,23,9.60
2013,09,30,06,24,9.60
2013,09,30,06,25,12.90
2013,09,30,06,26,11.30
2013,09,30,06,27,9.60
2013,09,30,06,28,11.30
2013,09,30,06,29,8.10
2013,09,30,06,30,8.10
2013,09,30,06,31,9.60
2013,09,30,06,32,11.30
2013,09,30,06,33,12.90
2013,09,30,06,34,11.30
2013,09,30,06,35,9.60
2013,09,30,06,36,6.40
2013,09,30,06,37,6.40
2013,09,30,06,38,9.60
2013,09,30,06,39,8.10
2013,09,30,06,40,6.40
2013,09,30,06,41,6.40
2013,09,30,06,42,8.10
2013,09,30,06,43,6.40
2013,09,30,06,44,8.10
2013,09,30,06,45,8.10
2013,09,30,06,46,8.10
2013,09,30,06,47,14.50
2013,09,30,06,48,14.50
2013,09,30,06,49,9.60
2013,09,30,06,50,11.30
2013,09,30,06,51,8.10
2013,09,30,06,52,11.30
2013,09,30,06,53,8.10
2013,09,30,06,54,16.10
2013,09,30,06,55,9.60
2013,09,30,06,56,19.30
2013,09,30,06,57,16.10
2013,09,30,06,58,14.50
2013,09,30,06,59,11.30
2013,09,30,07,00,12.90
2013,09,30,07,01,9.60
2013,09,30,07,02,11.30
2013,09,30,07,03,9.60
2013,09,30,07,04,22.50
2013,09,30,07,05,19.30
2013,09,30,07,06,17.70
2013,09,30,07,07,19.30
2013,09,30,07,08,20.90
2013,09,30,07,09,20.90
2013,09,30,07,10,16.10
2013,09,30,07,11,11.30
2013,09,30,07,12,17.70
2013,09,30,07,13,11.30
2013,09,30,07,14,8.10
2013,09,30,07,15,12.90
2013,09,30,07,16,9.60
2013,09,30,07,17,12.90
2013,09,30,07,18,9.60
2013,09,30,07,19,8.10
2013,09,30,07,20,11.30
2013,09,30,07,21,8.10
2013,09,30,07,22,9.60
2013,09,30,07,23,8.10
2013,09,30,07,24,8.10
2013,09,30,07,25,8.10
2013,09,30,07,26,6.40
2013,09,30,07,27,6.40
2013,09,30,07,28,4.80
2013,09,30,07,29,1.60
2013,09,30,07,30,1.60
2013,09,30,07,31,3.20
2013,09,30,07,32,3.20
2013,09,30,07,33,3.20
2013,09,30,07,34,6.40
2013,09,30,07,35,9.60
2013,09,30,07,36,8.10
2013,09,30,07,37,6.40
2013,09,30,07,38,9.60
2013,09,30,07,39,11.30
2013,09,30,07,40,9.60
2013,09,30,07,41,6.40
2013,09,30,07,42,12.90
2013,09,30,07,43,16.10
2013,09,30,07,44,12.90
2013,09,30,07,45,11.30
2013,09,30,07,46,9.60
2013,09,30,07,47,8.10
2013,09,30,07,48,8.10
2013,09,30,07,49,9.60
2013,09,30,07,50,11.30
2013,09,30,07,51,9.60
2013,09,30,07,52,6.40
2013,09,30,07,53,6.40
2013,09,30,07,54,6.40
2013,09,30,07,55,11.30
2013,09,30,07,56,9.60
2013,09,30,07,57,6.40
2013,09,30,07,58,6.40
2013,09,30,07,59,8.10
2013,09,30,08,00,8.10
2013,09,30,08,01,8.10
2013,09,30,08,02,27.40
2013,09,30,08,03,29.00
2013,09,30,08,04,16.10
2013,09,30,08,05,20.90
2013,09,30,08,06,16.10
2013,09,30,08,07,12.90
2013,09,30,08,08,17.70
2013,09,30,08,09,12.90
2013,09,30,08,10,12.90
2013,09,30,08,11,9.60
2013,09,30,08,12,9.60
2013,09,30,08,13,12.90
2013,09,30,08,14,4.80
2013,09,30,08,15,8.10
2013,09,30,08,16,4.80
2013,09,30,08,17,4.80
2013,09,30,08,18,8.10
2013,09,30,08,19,8.10
2013,09,30,08,20,6.40
2013,09,30,08,21,6.40
2013,09,30,08,22,4.80
2013,09,30,08,23,6.40
2013,09,30,08,24,6.40
2013,09,30,08,25,6.40
2013,09,30,08,26,6.40
2013,09,30,08,27,3.20
2013,09,30,08,28,3.20
2013,09,30,08,29,3.20
2013,09,30,08,30,1.60
2013,09,30,08,31,3.20
2013,09,30,08,32,3.20
2013,09,30,08,33,3.20
2013,09,30,08,34,3.20
2013,09,30,08,38,3.20
2013,09,30,08,43,1.60
2013,09,30,08,44,1.60
2013,09,30,08,45,1.60
2013,09,30,08,50,3.20
2013,09,30,08,51,1.60
2013,09,30,08,52,1.60
2013,09,30,08,53,3.20
2013,09,30,08,54,8.10
2013,09,30,08,55,8.10
2013,09,30,08,56,8.10
2013,09,30,08,57,6.40
2013,09,30,08,58,3.20
2013,09,30,09,03,3.20
2013,09,30,09,04,3.20
2013,09,30,09,05,3.20
2013,09,30,09,06,1.60
2013,09,30,09,07,1.60
2013,09,30,09,08,6.40
2013,09,30,09,09,8.10
2013,09,30,09,10,6.40
2013,09,30,09,11,6.40
2013,09,30,09,12,6.40
2013,09,30,09,13,6.40
2013,09,30,09,14,6.40
2013,09,30,09,15,3.20
2013,09,30,09,16,6.40
2013,09,30,09,17,3.20
2013,09,30,09,18,3.20
2013,09,30,09,19,3.20
2013,09,30,09,20,3.20
2013,09,30,09,21,6.40
2013,09,30,09,22,1.60
2013,09,30,09,24,1.60
2013,09,30,09,28,1.60
2013,09,30,09,29,3.20
2013,09,30,09,30,3.20
2013,09,30,09,31,3.20
2013,09,30,09,32,1.60
2013,09,30,09,33,3.20
2013,09,30,09,34,3.20
2013,09,30,09,35,3.20
2013,09,30,09,36,3.20
2013,09,30,09,37,3.20
2013,09,30,09,38,1.60
2013,09,30,09,39,1.60
2013,09,30,09,40,8.10
2013,09,30,09,41,8.10
2013,09,30,09,42,6.40
2013,09,30,09,43,8.10
2013,09,30,09,44,4.80
2013,09,30,09,45,6.40
2013,09,30,09,46,8.10
2013,09,30,09,47,6.40
2013,09,30,09,48,6.40
2013,09,30,09,49,8.10
2013,09,30,09,50,8.10
2013,09,30,09,51,8.10
2013,09,30,09,52,6.40
2013,09,30,09,53,6.40
2013,09,30,09,54,6.40
2013,09,30,09,55,9.60
2013,09,30,09,56,6.40
2013,09,30,09,57,6.40
2013,09,30,09,58,8.10
2013,09,30,09,59,12.90
2013,09,30,10,00,9.60
2013,09,30,10,01,12.90
2013,09,30,10,02,12.90
2013,09,30,10,03,14.50
2013,09,30,10,04,14.50
2013,09,30,10,05,11.30
2013,09,30,10,06,14.50
2013,09,30,10,07,22.50
2013,09,30,10,08,29.00
2013,09,30,10,09,17.70
2013,09,30,10,10,20.90
2013,09,30,10,11,12.90
2013,09,30,10,12,25.70
2013,09,30,10,13,24.20
2013,09,30,10,14,22.50
2013,09,30,10,15,33.80
2013,09,30,10,16,19.30
2013,09,30,10,17,25.70
2013,09,30,10,18,27.40
2013,09,30,10,19,17.70
2013,09,30,10,20,17.70
2013,09,30,10,21,25.70
2013,09,30,10,22,27.40
2013,09,30,10,23,19.30
2013,09,30,10,24,22.50
2013,09,30,10,25,22.50
2013,09,30,10,26,22.50
2013,09,30,10,27,25.70
2013,09,30,10,28,20.90
2013,09,30,10,29,17.70
2013,09,30,10,30,16.10
2013,09,30,10,31,20.90
2013,09,30,10,32,16.10
2013,09,30,10,33,19.30
2013,09,30,10,34,17.70
2013,09,30,10,35,16.10
2013,09,30,10,36,17.70
2013,09,30,10,37,22.50
2013,09,30,10,38,20.90
2013,09,30,10,39,22.50
2013,09,30,10,40,24.20
2013,09,30,10,41,16.10
2013,09,30,10,42,11.30
2013,09,30,10,43,27.40
2013,09,30,10,44,22.50
2013,09,30,10,45,16.10
2013,09,30,10,46,20.90
2013,09,30,10,47,20.90
2013,09,30,10,48,19.30
2013,09,30,10,49,22.50
2013,09,30,10,50,14.50
2013,09,30,10,51,16.10
2013,09,30,10,52,24.20
2013,09,30,10,53,16.10
2013,09,30,10,54,20.90
2013,09,30,10,55,9.60
2013,09,30,10,56,19.30
2013,09,30,10,57,20.90
2013,09,30,10,58,20.90
2013,09,30,10,59,14.50
2013,09,30,11,00,24.20
2013,09,30,11,01,27.40
2013,09,30,11,02,17.70
2013,09,30,11,03,16.10
2013,09,30,11,04,12.90
2013,09,30,11,05,12.90
2013,09,30,11,06,11.30
2013,09,30,11,07,11.30
2013,09,30,11,08,11.30
2013,09,30,11,09,14.50
2013,09,30,11,10,12.90
2013,09,30,11,11,16.10
2013,09,30,11,12,12.90
2013,09,30,11,13,11.30
2013,09,30,11,14,20.90
2013,09,30,11,15,16.10
2013,09,30,11,16,16.10
2013,09,30,11,17,14.50
2013,09,30,11,18,17.70
2013,09,30,11,19,9.60
2013,09,30,11,20,32.20
2013,09,30,11,21,30.60
2013,09,30,11,22,24.20
2013,09,30,11,23,29.00
2013,09,30,11,24,19.30
2013,09,30,11,25,20.90
2013,09,30,11,26,25.70
2013,09,30,11,27,14.50
2013,09,30,11,28,12.90
2013,09,30,11,29,17.70
2013,09,30,11,30,14.50
2013,09,30,11,31,12.90
2013,09,30,11,32,11.30
2013,09,30,11,33,16.10
2013,09,30,11,34,14.50
2013,09,30,11,35,17.70
2013,09,30,11,36,22.50
2013,09,30,11,37,14.50
2013,09,30,11,38,19.30
2013,09,30,11,39,14.50
2013,09,30,11,40,12.90
2013,09,30,11,41,12.90
2013,09,30,11,42,12.90
2013,09,30,11,43,12.90
2013,09,30,11,44,12.90
2013,09,30,11,45,12.90
2013,09,30,11,46,11.30
2013,09,30,11,47,8.10
2013,09,30,11,48,11.30
2013,09,30,11,49,11.30
2013,09,30,11,50,14.50
2013,09,30,11,51,9.60
2013,09,30,11,52,9.60
2013,09,30,11,53,17.70
2013,09,30,11,54,12.90
2013,09,30,11,55,9.60
2013,09,30,11,56,9.60
2013,09,30,11,57,11.30
2013,09,30,11,58,12.90
2013,09,30,11,59,16.10
2013,09,30,12,00,17.70
2013,09,30,12,01,11.30
2013,09,30,12,02,19.30
2013,09,30,12,03,14.50
2013,09,30,12,04,22.50
2013,09,30,12,05,16.10
2013,09,30,12,06,16.10
2013,09,30,12,07,24.20
2013,09,30,12,08,9.60
2013,09,30,12,09,14.50
2013,09,30,12,10,17.70
2013,09,30,12,11,11.30
2013,09,30,12,12,22.50
2013,09,30,12,13,19.30
2013,09,30,12,14,14.50
2013,09,30,12,15,11.30
2013,09,30,12,16,12.90
2013,09,30,12,17,12.90
2013,09,30,12,18,16.10
2013,09,30,12,19,14.50
2013,09,30,12,20,8.10
2013,09,30,12,21,8.10
2013,09,30,12,22,17.70
2013,09,30,12,23,20.90
2013,09,30,12,24,11.30
2013,09,30,12,25,22.50
2013,09,30,12,26,19.30
2013,09,30,12,27,30.60
2013,09,30,12,28,12.90
2013,09,30,12,29,19.30
2013,09,30,12,30,12.90
2013,09,30,12,31,19.30
2013,09,30,12,32,9.60
2013,09,30,12,33,6.40
2013,09,30,12,34,12.90
2013,09,30,12,35,14.50
2013,09,30,12,36,22.50
2013,09,30,12,37,11.30
2013,09,30,12,38,9.60
2013,09,30,12,39,17.70
2013,09,30,12,40,19.30
2013,09,30,12,41,9.60
2013,09,30,12,42,12.90
2013,09,30,12,43,12.90
2013,09,30,12,44,9.60
2013,09,30,12,45,9.60
2013,09,30,12,46,9.60
2013,09,30,12,47,14.50
2013,09,30,12,48,19.30
2013,09,30,12,49,16.10
2013,09,30,12,50,20.90
2013,09,30,12,51,12.90
2013,09,30,12,52,24.20
2013,09,30,12,53,11.30
2013,09,30,12,54,14.50
2013,09,30,12,55,9.60
2013,09,30,12,56,14.50
2013,09,30,12,57,16.10
2013,09,30,12,58,12.90
2013,09,30,12,59,20.90
2013,09,30,13,00,14.50
2013,09,30,13,01,20.90
2013,09,30,13,02,12.90
2013,09,30,13,03,11.30
2013,09,30,13,04,9.60
2013,09,30,13,05,8.10
2013,09,30,13,06,9.60
2013,09,30,13,07,11.30
2013,09,30,13,08,11.30
2013,09,30,13,09,12.90
2013,09,30,13,10,11.30
2013,09,30,13,11,12.90
2013,09,30,13,12,11.30
2013,09,30,13,13,9.60
2013,09,30,13,14,9.60
2013,09,30,13,15,8.10
2013,09,30,13,16,12.90
2013,09,30,13,17,16.10
2013,09,30,13,18,14.50
2013,09,30,13,19,14.50
2013,09,30,13,20,11.30
2013,09,30,13,21,12.90
2013,09,30,13,22,12.90
2013,09,30,13,23,12.90
2013,09,30,13,24,17.70
2013,09,30,13,25,12.90
2013,09,30,13,26,19.30
2013,09,30,13,27,16.10
2013,09,30,13,28,17.70
2013,09,30,13,29,17.70
2013,09,30,13,30,17.70
2013,09,30,13,31,17.70
2013,09,30,13,32,14.50
2013,09,30,13,33,12.90
2013,09,30,13,34,14.50
2013,09,30,13,35,9.60
2013,09,30,13,36,12.90
2013,09,30,13,37,14.50
2013,09,30,13,38,14.50
2013,09,30,13,39,16.10
2013,09,30,13,40,17.70
2013,09,30,13,41,16.10
2013,09,30,13,42,14.50
2013,09,30,13,43,9.60
2013,09,30,13,44,11.30
2013,09,30,13,45,12.90
2013,09,30,13,46,9.60
2013,09,30,13,47,17.70
2013,09,30,13,48,16.10
2013,09,30,13,49,12.90
2013,09,30,13,50,9.60
2013,09,30,13,51,17.70
2013,09,30,13,52,12.90
2013,09,30,13,53,17.70
2013,09,30,13,54,14.50
2013,09,30,13,55,16.10
2013,09,30,13,56,22.50
2013,09,30,13,57,16.10
2013,09,30,13,58,16.10
2013,09,30,13,59,17.70
2013,09,30,14,00,16.10
2013,09,30,14,01,14.50
2013,09,30,14,02,25.70
2013,09,30,14,03,22.50
2013,09,30,14,04,12.90
2013,09,30,14,05,17.70
2013,09,30,14,06,17.70
2013,09,30,14,07,20.90
2013,09,30,14,08,20.90
2013,09,30,14,09,19.30
2013,09,30,14,10,17.70
2013,09,30,14,11,17.70
2013,09,30,14,12,16.10
2013,09,30,14,13,17.70
2013,09,30,14,14,20.90
2013,09,30,14,15,25.70
2013,09,30,14,16,29.00
2013,09,30,14,17,27.40
2013,09,30,14,18,29.00
2013,09,30,14,19,17.70
2013,09,30,14,20,22.50
2013,09,30,14,21,19.30
2013,09,30,14,22,14.50
2013,09,30,14,23,16.10
2013,09,30,14,24,14.50
2013,09,30,14,25,16.10
2013,09,30,14,26,17.70
2013,09,30,14,27,22.50
2013,09,30,14,28,27.40
2013,09,30,14,29,22.50
2013,09,30,14,30,24.20
2013,09,30,14,31,19.30
2013,09,30,14,32,24.20
2013,09,30,14,33,25.70
2013,09,30,14,34,22.50
2013,09,30,14,35,19.30
2013,09,30,14,36,22.50
2013,09,30,14,37,14.50
2013,09,30,14,38,17.70
2013,09,30,14,39,17.70
2013,09,30,14,40,16.10
2013,09,30,14,41,25.70
2013,09,30,14,42,29.00
2013,09,30,14,43,22.50
2013,09,30,14,44,17.70
2013,09,30,14,45,12.90
2013,09,30,14,46,24.20
2013,09,30,14,47,19.30
2013,09,30,14,48,14.50
2013,09,30,14,49,16.10
2013,09,30,14,50,17.70
2013,09,30,14,51,6.40
2013,09,30,14,52,9.60
2013,09,30,14,53,6.40
2013,09,30,14,54,6.40
2013,09,30,14,55,11.30
2013,09,30,14,56,11.30
2013,09,30,14,57,11.30
2013,09,30,14,58,14.50
2013,09,30,14,59,11.30
2013,09,30,15,00,11.30
2013,09,30,15,01,9.60
2013,09,30,15,02,11.30
2013,09,30,15,03,14.50
2013,09,30,15,04,8.10
2013,09,30,15,05,9.60
2013,09,30,15,06,19.30
2013,09,30,15,07,25.70
2013,09,30,15,08,29.00
2013,09,30,15,09,25.70
2013,09,30,15,10,24.20
2013,09,30,15,11,22.50
2013,09,30,15,12,24.20
2013,09,30,15,13,19.30
2013,09,30,15,14,25.70
2013,09,30,15,15,19.30
2013,09,30,15,16,11.30
2013,09,30,15,17,4.80
2013,09,30,15,18,9.60
2013,09,30,15,19,8.10
2013,09,30,15,20,11.30
2013,09,30,15,21,9.60
2013,09,30,15,22,11.30
2013,09,30,15,23,8.10
2013,09,30,15,24,6.40
2013,09,30,15,25,8.10
2013,09,30,15,26,6.40
2013,09,30,15,27,4.80
2013,09,30,15,28,11.30
2013,09,30,15,29,11.30
2013,09,30,15,30,9.60
2013,09,30,15,31,16.10
2013,09,30,15,32,12.90
2013,09,30,15,33,11.30
2013,09,30,15,34,9.60
2013,09,30,15,35,8.10
2013,09,30,15,37,6.40
2013,09,30,15,38,6.40
2013,09,30,15,39,6.40
2013,09,30,15,40,3.20
2013,09,30,15,41,9.60
2013,09,30,15,42,9.60
2013,09,30,15,43,8.10
2013,09,30,15,44,6.40
2013,09,30,15,45,6.40
2013,09,30,15,46,8.10
2013,09,30,15,47,6.40
2013,09,30,15,48,6.40
2013,09,30,15,49,8.10
2013,09,30,15,50,6.40
2013,09,30,15,51,4.80
2013,09,30,15,52,6.40
2013,09,30,15,53,6.40
2013,09,30,15,54,6.40
2013,09,30,15,55,4.80
2013,09,30,15,56,3.20
2013,09,30,15,57,8.10
2013,09,30,15,58,9.60
2013,09,30,15,59,4.80
2013,09,30,16,00,3.20
2013,09,30,16,03,4.80
2013,09,30,16,04,3.20
2013,09,30,16,05,3.20
2013,09,30,16,06,1.60
2013,09,30,16,07,1.60
2013,09,30,16,08,1.60
2013,09,30,16,09,3.20
2013,09,30,16,10,3.20
2013,09,30,16,11,4.80
2013,09,30,16,12,4.80
2013,09,30,16,13,4.80
2013,09,30,16,14,4.80
2013,09,30,16,15,6.40
2013,09,30,16,16,6.40
2013,09,30,16,17,6.40
2013,09,30,16,18,4.80
2013,09,30,16,19,4.80
2013,09,30,16,20,6.40
2013,09,30,16,21,9.60
2013,09,30,16,22,9.60
2013,09,30,16,23,6.40
2013,09,30,16,24,11.30
2013,09,30,16,25,11.30
2013,09,30,16,26,6.40
2013,09,30,16,27,6.40
2013,09,30,16,28,9.60
2013,09,30,16,29,4.80
2013,09,30,16,30,6.40
2013,09,30,16,31,4.80
2013,09,30,16,32,3.20
2013,09,30,16,33,3.20
2013,09,30,16,35,3.20
2013,09,30,16,36,1.60
2013,09,30,16,37,4.80
2013,09,30,16,38,3.20
2013,09,30,16,39,1.60
2013,09,30,16,40,1.60
2013,09,30,16,42,1.60
2013,09,30,16,43,1.60
2013,09,30,16,44,1.60
2013,09,30,16,45,1.60
2013,09,30,16,46,1.60
2013,09,30,16,47,3.20
2013,09,30,16,48,3.20
2013,09,30,16,49,3.20
2013,09,30,16,50,1.60
2013,09,30,16,51,3.20
2013,09,30,16,52,3.20
2013,09,30,16,53,1.60
2013,09,30,16,55,4.80
2013,09,30,16,56,4.80
2013,09,30,16,57,1.60
2013,09,30,16,58,1.60
2013,09,30,16,59,3.20
2013,09,30,17,00,3.20
2013,09,30,17,02,1.60
2013,09,30,17,03,3.20
2013,09,30,17,04,1.60
2013,09,30,17,05,3.20
2013,09,30,17,06,1.60
2013,09,30,17,07,1.60
2013,09,30,17,08,4.80
2013,09,30,17,09,3.20
2013,09,30,17,10,3.20
2013,09,30,17,11,3.20
2013,09,30,17,12,4.80
2013,09,30,17,13,3.20
2013,09,30,17,14,1.60
2013,09,30,17,15,4.80
2013,09,30,17,16,4.80
2013,09,30,17,17,3.20
2013,09,30,17,18,1.60
2013,09,30,17,19,1.60
2013,09,30,17,20,1.60
2013,09,30,17,21,6.40
2013,09,30,17,22,6.40
2013,09,30,17,23,8.10
2013,09,30,17,24,8.10
2013,09,30,17,25,6.40
2013,09,30,17,26,6.40
2013,09,30,17,27,8.10
2013,09,30,17,28,6.40
2013,09,30,17,29,6.40
2013,09,30,17,30,6.40
2013,09,30,17,31,6.40
2013,09,30,17,32,8.10
2013,09,30,17,33,6.40
2013,09,30,17,34,8.10
2013,09,30,17,35,8.10
2013,09,30,17,36,6.40
2013,09,30,17,37,12.90
2013,09,30,17,38,12.90
2013,09,30,17,39,19.30
2013,09,30,17,40,12.90
2013,09,30,17,41,17.70
2013,09,30,17,42,19.30
2013,09,30,17,43,19.30
2013,09,30,17,44,14.50
2013,09,30,17,45,9.60
2013,09,30,17,46,12.90
2013,09,30,17,47,9.60
2013,09,30,17,48,8.10
2013,09,30,17,49,4.80
2013,09,30,17,50,9.60
2013,09,30,17,51,8.10
2013,09,30,17,52,8.10
2013,09,30,17,53,9.60
2013,09,30,17,54,11.30
2013,09,30,17,55,6.40
2013,09,30,17,56,6.40
2013,09,30,17,57,4.80
2013,09,30,17,58,1.60
2013,09,30,17,59,4.80
2013,09,30,18,00,3.20
2013,09,30,18,01,1.60
2013,09,30,18,02,1.60
2013,09,30,18,03,4.80
2013,09,30,18,04,3.20
2013,09,30,18,05,3.20
2013,09,30,18,06,4.80
2013,09,30,18,07,4.80
2013,09,30,18,08,4.80
2013,09,30,18,09,4.80
2013,09,30,18,10,1.60
2013,09,30,18,11,1.60
2013,09,30,18,12,1.60
2013,09,30,18,13,3.20
2013,09,30,18,14,3.20
2013,09,30,18,15,1.60
2013,09,30,18,16,3.20
2013,09,30,18,17,3.20
2013,09,30,18,18,1.60
2013,09,30,18,20,6.40
2013,09,30,18,21,3.20
2013,09,30,18,22,1.60
2013,09,30,18,23,6.40
2013,09,30,18,24,8.10
2013,09,30,18,25,6.40
2013,09,30,18,26,4.80
2013,09,30,18,27,9.60
2013,09,30,18,28,9.60
2013,09,30,18,29,6.40
2013,09,30,18,30,6.40
2013,09,30,18,31,6.40
2013,09,30,18,32,9.60
2013,09,30,18,33,9.60
2013,09,30,18,34,8.10